Marietta, GA

1:11 AM EST on February 12, 2016 (GMT -0500)
Dobbins Air Force Base

Weather History for KMGE - January, 2013

Change the Weather History Date:

Friday, January 11, 2013

  Actual Average Record
Temperature  
Mean Temperature 64 °F -  
Max Temperature 68 °F 49 °F 68 °F (2005)
Min Temperature 60 °F 32 °F 14 °F (1997)
Degree Days  
Heating Degree Days 1    
Growing Degree Days 14 (Base 50)    
Moisture  
Dew Point 58 °F    
Average Humidity 83    
Maximum Humidity 96    
Minimum Humidity 73    
Precipitation  
Precipitation 0.15 in - - ()
Sea Level Pressure  
Sea Level Pressure 30.16 in    
Wind  
Wind Speed 10 mph (SSE)    
Max Wind Speed 17 mph    
Max Gust Speed 25 mph    
Visibility 7 miles    
Events Rain    
Averages and records for this station are not official NWS values.
T = Trace of Precipitation, MM = Missing Value Source: NWS Daily Summary

Daily Weather History Graph

Daily Weather History Graph

Search for Another Location

Airport or City:

Trip Planner

Search our weather history database for the weather conditions in past years. The results will help you decide how hot, cold, wet, or windy it might be!

Date:

Astronomy

Jan. 11, 2013 Rise Set
Actual Time 7:43 AM EST 5:48 PM EST
Civil Twilight 7:16 AM EST 6:16 PM EST
Nautical Twilight 6:45 AM EST 6:46 PM EST
Astronomical Twilight 6:15 AM EST 7:17 PM EST
Moon 7:18 AM EST (1/11) 6:02 PM EST (1/11)
Length of Visible Light 10h 59m
Length of Day
10h 05m
Waning Crescent, 0% of the Moon is Illuminated
Jan 11
Waning Crescent
Jan 11
New
Jan 18
First Quarter
Jan 26
Full
Feb 3
Last Quarter

Hourly Weather History & Observations

Time (EST) Temp. Dew Point Humidity Pressure Visibility Wind Dir Wind Speed Gust Speed Precip Events Conditions
12:13 AM 60.8 °F 55.4 °F 82% 30.22 in 10.0 mi SE 13.8 mph - N/A   Overcast
12:33 AM 60.8 °F 55.4 °F 82% 30.22 in 10.0 mi SE 12.7 mph - N/A   Overcast
12:48 AM 60.8 °F 55.4 °F 82% 30.21 in 10.0 mi SE 10.4 mph - N/A Rain Light Rain
12:52 AM 60.8 °F 55.4 °F 82% 30.22 in 10.0 mi SE 12.7 mph - N/A   Overcast
12:55 AM 61.0 °F 56.1 °F 84% 30.22 in 10.0 mi SE 11.5 mph - 0.00 in   Overcast
12:57 AM 60.8 °F 55.4 °F 82% 30.21 in 10.0 mi SE 13.8 mph - N/A   Overcast
1:13 AM 60.8 °F 55.4 °F 82% 30.19 in 9.0 mi SE 13.8 mph 25.3 mph N/A   Overcast
1:17 AM 60.8 °F 55.4 °F 82% 30.19 in 8.0 mi SE 15.0 mph 25.3 mph N/A   Overcast
1:31 AM 60.8 °F 55.4 °F 82% 30.18 in 8.0 mi ESE 17.3 mph 25.3 mph N/A   Overcast
1:55 AM 60.8 °F 54.3 °F 79% 30.17 in 9.0 mi SE 13.8 mph 25.3 mph N/A   Overcast
2:41 AM 60.8 °F 55.4 °F 82% 30.17 in 8.0 mi SE 15.0 mph - N/A   Overcast
2:55 AM 61.0 °F 55.9 °F 83% 30.17 in 10.0 mi SE 13.8 mph 20.7 mph N/A   Overcast
3:09 AM 60.8 °F 57.2 °F 88% 30.19 in 10.0 mi SSE 9.2 mph - N/A   Overcast
3:20 AM 60.8 °F 57.2 °F 88% 30.19 in 10.0 mi SSE 10.4 mph - N/A Rain Light Rain
3:42 AM 60.8 °F 57.2 °F 88% 30.18 in 9.0 mi SSE 9.2 mph - N/A Rain Light Rain
3:55 AM 61.5 °F 56.5 °F 83% 30.17 in 10.0 mi SE 10.4 mph - 0.02 in Rain Light Rain
4:11 AM 60.8 °F 55.4 °F 82% 30.16 in 10.0 mi SE 10.4 mph - N/A   Overcast
4:13 AM 60.8 °F 55.4 °F 82% 30.16 in 10.0 mi SE 10.4 mph - N/A   Overcast
4:19 AM 60.8 °F 55.4 °F 82% 30.15 in 10.0 mi SE 12.7 mph - N/A   Overcast
4:32 AM 60.8 °F 57.2 °F 88% 30.14 in 10.0 mi SSE 12.7 mph - N/A   Overcast
4:33 AM 60.8 °F 57.2 °F 88% 30.14 in 10.0 mi SSE 11.5 mph - N/A   Mostly Cloudy
4:41 AM 60.8 °F 57.2 °F 88% 30.14 in 10.0 mi SE 10.4 mph - N/A   Mostly Cloudy
4:42 AM 60.8 °F 57.2 °F 88% 30.14 in 10.0 mi SE 10.4 mph - N/A   Overcast
4:55 AM 61.7 °F 57.0 °F 85% 30.15 in 10.0 mi SE 10.4 mph - 0.01 in   Overcast
4:58 AM 62.6 °F 57.2 °F 82% 30.15 in 10.0 mi SE 9.2 mph - N/A   Overcast
5:24 AM 62.6 °F 57.2 °F 82% 30.15 in 10.0 mi ESE 6.9 mph - N/A   Overcast
5:55 AM 62.6 °F 57.2 °F 82% 30.15 in 10.0 mi SE 8.1 mph - N/A   Overcast
6:37 AM 62.6 °F 57.2 °F 82% 30.16 in 7.0 mi SE 6.9 mph - N/A   Overcast
6:55 AM 62.6 °F 57.4 °F 83% 30.17 in 7.0 mi SE 5.8 mph - N/A   Overcast
7:06 AM 62.6 °F 57.2 °F 82% 30.17 in 7.0 mi SE 6.9 mph - N/A Rain Light Rain
7:52 AM 62.6 °F 57.2 °F 82% 30.17 in 7.0 mi SE 9.2 mph - N/A   Overcast
7:55 AM 63.1 °F 58.1 °F 84% 30.17 in 7.0 mi SSE 9.2 mph - 0.00 in   Overcast
8:13 AM 62.6 °F 57.2 °F 82% 30.18 in 7.0 mi SSE 6.9 mph - N/A   Overcast
8:55 AM 63.7 °F 58.6 °F 84% 30.19 in 5.0 mi SSE 4.6 mph - N/A   Overcast
9:23 AM 64.4 °F 59.0 °F 83% 30.20 in 3.0 mi SSE 6.9 mph - N/A   Overcast
9:39 AM 64.4 °F 59.0 °F 83% 30.20 in 3.0 mi SSE 6.9 mph - N/A   Light Drizzle
9:50 AM 64.4 °F 59.0 °F 83% 30.20 in 3.0 mi SSE 5.8 mph - N/A   Light Drizzle
9:55 AM 63.7 °F 58.3 °F 83% 30.20 in 3.0 mi South 8.1 mph - 0.00 in   Light Drizzle
9:59 AM 64.4 °F 59.0 °F 83% 30.20 in 3.0 mi South 10.4 mph - N/A   Overcast
10:05 AM 64.4 °F 59.0 °F 83% 30.20 in 6.0 mi South 6.9 mph - N/A   Overcast
10:31 AM 64.4 °F 59.0 °F 83% 30.21 in 4.0 mi South 4.6 mph - N/A   Overcast
10:43 AM 64.4 °F 59.0 °F 83% 30.21 in 2.0 mi South 8.1 mph - N/A Rain Light Rain
10:55 AM 64.2 °F 58.1 °F 80% 30.20 in 2.0 mi South 8.1 mph - 0.00 in   Light Drizzle
11:08 AM 64.4 °F 59.0 °F 83% 30.20 in 5.0 mi SSE 5.8 mph - N/A   Overcast
11:26 AM 64.4 °F 59.0 °F 83% 30.19 in 6.0 mi SSE 6.9 mph - N/A   Overcast
11:55 AM 65.3 °F 58.5 °F 78% 30.18 in 7.0 mi SSW 9.2 mph - N/A   Overcast
12:55 PM 65.8 °F 58.6 °F 78% 30.16 in 10.0 mi SSW 6.9 mph - N/A   Overcast
1:08 PM 66.2 °F 59.0 °F 78% 30.16 in 10.0 mi South 5.8 mph - N/A   Overcast
1:29 PM 66.2 °F 59.0 °F 78% 30.14 in 10.0 mi South 5.8 mph - N/A   Mostly Cloudy
1:45 PM 68.0 °F 59.0 °F 73% 30.13 in 10.0 mi South 5.8 mph - N/A   Mostly Cloudy
1:55 PM 67.3 °F 59.2 °F 75% 30.13 in 10.0 mi SSW 6.9 mph - N/A   Mostly Cloudy
2:16 PM 68.0 °F 59.0 °F 73% 30.12 in 10.0 mi Variable 4.6 mph - N/A   Light Drizzle
2:22 PM 68.0 °F 59.0 °F 73% 30.12 in 2.0 mi South 5.8 mph - N/A   Light Drizzle
2:34 PM 66.2 °F 59.0 °F 78% 30.12 in 3.0 mi SSW 4.6 mph - N/A   Light Drizzle
2:45 PM 66.2 °F 59.0 °F 78% 30.12 in 5.0 mi South 4.6 mph - N/A   Haze
2:55 PM 66.4 °F 59.9 °F 80% 30.12 in 5.0 mi South 5.8 mph - 0.01 in   Haze
3:02 PM 66.2 °F 59.0 °F 78% 30.13 in 5.0 mi South 6.9 mph - N/A   Light Drizzle
3:06 PM 66.2 °F 59.0 °F 78% 30.12 in 1.8 mi South 6.9 mph - N/A   Light Drizzle
3:55 PM 64.8 °F 59.5 °F 83% 30.13 in 1.8 mi South 4.6 mph - 0.03 in Rain Light Rain
4:23 PM 64.4 °F 60.8 °F 88% 30.13 in 2.0 mi South 3.5 mph - N/A   Light Drizzle
4:34 PM 64.4 °F 60.8 °F 88% 30.13 in 3.0 mi South 3.5 mph - N/A Rain Light Rain
4:55 PM 64.6 °F 61.5 °F 90% 30.13 in 6.0 mi SSE 3.5 mph - 0.05 in   Light Drizzle
5:01 PM 64.4 °F 60.8 °F 88% 30.13 in 7.0 mi SSE 4.6 mph - N/A   Overcast
5:06 PM 64.4 °F 60.8 °F 88% 30.13 in 2.0 mi South 4.6 mph - N/A Rain Light Rain
5:25 PM 64.4 °F 60.8 °F 88% 30.14 in 5.0 mi South 3.5 mph - N/A   Light Drizzle
5:47 PM 64.4 °F 60.8 °F 88% 30.13 in 5.0 mi South 3.5 mph - N/A   Overcast
5:55 PM 64.2 °F 61.3 °F 90% 30.13 in 5.0 mi Calm Calm - 0.02 in Rain Light Rain
6:10 PM 64.4 °F 62.6 °F 94% 30.13 in 7.0 mi Calm Calm - N/A   Mostly Cloudy
6:55 PM 64.4 °F 61.2 °F 89% 30.14 in 7.0 mi Calm Calm - 0.01 in   Overcast
7:55 PM 64.0 °F 62.8 °F 96% 30.14 in 10.0 mi Calm Calm - N/A   Overcast
8:55 PM 63.9 °F 61.3 °F 91% 30.14 in 10.0 mi SE 4.6 mph - N/A   Overcast
9:55 PM 63.3 °F 59.4 °F 87% 30.14 in 10.0 mi Variable 3.5 mph - N/A   Mostly Cloudy
10:55 PM 64.2 °F 60.1 °F 86% 30.14 in 10.0 mi SSE 3.5 mph - N/A   Mostly Cloudy
11:55 PM 63.9 °F 59.4 °F 85% 30.14 in 10.0 mi South 4.6 mph - N/A   Mostly Cloudy